"Pseudo-MPEC" for C27V0Y2

Created 2020 Feb 29 12:07:06 UT using Find_Orb

Click here for an explanation of pseudo-MPECs

 
 Astrometry: 
     C27V0Y2  C2020 02 20.23134 09 14 13.03 -23 56 56.7    ~2K6M 21.3 GVNEOCPG96
     C27V0Y2  C2020 02 20.23655 09 14 15.53 -23 56 38.0    ~2K6M 21.5 GVNEOCPG96
     C27V0Y2  C2020 02 20.24176 09 14 17.93 -23 56 20.4    ~2K6M 21.0 GVNEOCPG96
     C27V0Y2  C2020 02 20.24697 09 14 20.40 -23 56 00.6    ~2K6M 21.2 GVNEOCPG96
     C27V0Y2  C2020 02 20.30671 09 14 48.32 -23 52 22.5    ~2K87 20.9 GVNEOCPI52
     C27V0Y2  C2020 02 20.31018 09 14 49.95 -23 52 10.1    ~2K87 21.2 GVNEOCPI52
     C27V0Y2  C2020 02 20.31366 09 14 51.56 -23 51 57.3    ~2K87 21.4 GVNEOCPI52
     C27V0Y2  C2020 02 20.31714 09 14 53.20 -23 51 44.7    ~2K87 21.4 GVNEOCPI52

Station data:
(G96) Mt. Lemmon Survey  (N32.442754 W110.788720)  US/Arizona.  Observers T.
   A. Pruyne, B. M. Africano, E. J. Christensen, G. A. Farneth, D. C. Fuls,
   A. R. Gibbs, A. D. Grauer, H. Gröller, J. A. Johnson, R. A. Kowalski, S.
   M. Larson, G. J. Leonard, D. Rankin, R. L. Seaman, F. C. Shelly. 1.5-m
   reflector + 10K CCD.
(I52) Steward Observatory, Mt. Lemmon Station  (N32.442547 W110.788920)
   US/Arizona.  Observers T. A. Pruyne, B. M. Africano, E. J. Christensen, G.
   A. Farneth, D. C. Fuls, A. R. Gibbs, A. D. Grauer, H. Gröller, J. A.
   Johnson, R. A. Kowalski, S. M. Larson, G. J. Leonard, D. Rankin, R. L.
   Seaman, F. C. Shelly. 1.0-m reflector + CCD.

Orbital elements:  C27V0Y2
   Perihelion 2020 Jan 29.398964 +/- 23.6 TT =  9:34:30 (JD 2458877.898964)
Epoch 2020 Feb 20.0 TT = JDT 2458899.5   Earth MOID: 0.0549   Ma: 0.0024
M  13.07415514 +/- 11               (J2000 ecliptic)          AutoNEOCP
n   0.60525594 +/- 0.214            Peri.  306.10708 +/- 90
a   1.38412934 +/- 0.326            Node   181.19864 +/- 60
e   0.2660832 +/- 0.166             Incl.    3.76778 +/- 4.0
P   1.63/594.78d           H 26.3   G  0.15   U 11.7  SR
q 1.01583572 +/- 0.0818    Q 1.75242296 +/- 1.62
From 8 observations 2020 Feb. 20 (2.1 hr); mean residual 0".33
Residuals in arcseconds: 
200220 G96  .30-  .03+    200220 G96  .14+  .42+    200220 I52  .15-  .09-    
200220 G96  .40+  .22+    200220 I52  .02+  .58+    200220 I52  .01-  .49-    
200220 G96  .23-  .75-    200220 I52  .11+  .07+    

Ephemerides (geocentric):
Date (UTC) HH   RA              Dec         delta   r     elong  mag " sig PA
---- -- -- --  -------------   -----------  ------ ------ -----  --- ---- ---
2020 02 29 12  10 23 11.188   -13 54 51.58  .06522 1.0513 157.5 21.5 930' 145
2020 02 29 13  10 23 26.257   -13 52 13.38  .06528 1.0514 157.6 21.5 939' 145
2020 02 29 14  10 23 41.296   -13 49 35.31  .06534 1.0515 157.7 21.5 949' 145
2020 02 29 15  10 23 56.303   -13 46 57.38  .06540 1.0516 157.7 21.5 958' 145
2020 02 29 16  10 24 11.280   -13 44 19.58  .06546 1.0517 157.8 21.5 967' 145
2020 02 29 17  10 24 26.226   -13 41 41.92  .06552 1.0518 157.9 21.5 976' 145
2020 02 29 18  10 24 41.142   -13 39 04.39  .06558 1.0518 157.9 21.5 985' 145
2020 02 29 19  10 24 56.027   -13 36 27.00  .06564 1.0519 158.0 21.5 994' 145
2020 02 29 20  10 25 10.881   -13 33 49.75  .06570 1.0520 158.1 21.5  17d 145
2020 02 29 21  10 25 25.705   -13 31 12.64  .06576 1.0521 158.1 21.5  17d 145
2020 02 29 22  10 25 40.499   -13 28 35.66  .06582 1.0522 158.2 21.5  17d 145
2020 02 29 23  10 25 55.262   -13 25 58.83  .06588 1.0523 158.2 21.5  17d 145
2020 03 01 00  10 26 09.994   -13 23 22.14  .06595 1.0524 158.3 21.5  17d 145
2020 03 01 01  10 26 24.697   -13 20 45.59  .06601 1.0525 158.4 21.5  17d 145
2020 03 01 02  10 26 39.369   -13 18 09.18  .06607 1.0526 158.4 21.5  18d 145
2020 03 01 03  10 26 54.010   -13 15 32.92  .06613 1.0527 158.5 21.5  18d 145
2020 03 01 04  10 27 08.622   -13 12 56.81  .06619 1.0528 158.6 21.5  18d 145
2020 03 01 05  10 27 23.203   -13 10 20.84  .06625 1.0529 158.6 21.5  18d 145
2020 03 01 06  10 27 37.754   -13 07 45.01  .06632 1.0530 158.7 21.5  18d 145
2020 03 01 07  10 27 52.275   -13 05 09.34  .06638 1.0530 158.7 21.5  18d 146
2020 03 01 08  10 28 06.765   -13 02 33.81  .06644 1.0531 158.8 21.5  19d 146
2020 03 01 09  10 28 21.226   -12 59 58.43  .06650 1.0532 158.9 21.5  19d 146
2020 03 01 10  10 28 35.657   -12 57 23.21  .06657 1.0533 158.9 21.5  19d 146
2020 03 01 11  10 28 50.058   -12 54 48.13  .06663 1.0534 159.0 21.5  19d 146
2020 03 01 12  10 29 04.428   -12 52 13.21  .06669 1.0535 159.1 21.5  19d 146
2020 03 01 13  10 29 18.769   -12 49 38.43  .06676 1.0536 159.1 21.5  19d 146
2020 03 01 14  10 29 33.080   -12 47 03.82  .06682 1.0537 159.2 21.5  19d 146
2020 03 01 15  10 29 47.361   -12 44 29.35  .06688 1.0538 159.2 21.5  20d 146
2020 03 01 16  10 30 01.613   -12 41 55.04  .06695 1.0539 159.3 21.5  20d 146
2020 03 01 17  10 30 15.834   -12 39 20.89  .06701 1.0540 159.4 21.5  20d 146
2020 03 01 18  10 30 30.026   -12 36 46.89  .06707 1.0541 159.4 21.5  20d 146
2020 03 01 19  10 30 44.189   -12 34 13.05  .06714 1.0542 159.5 21.5  20d 146
2020 03 01 20  10 30 58.321   -12 31 39.37  .06720 1.0543 159.6 21.5  20d 146
2020 03 01 21  10 31 12.424   -12 29 05.85  .06727 1.0544 159.6 21.5  20d 146
2020 03 01 22  10 31 26.498   -12 26 32.49  .06733 1.0545 159.7 21.5  21d 146
2020 03 01 23  10 31 40.542   -12 23 59.28  .06740 1.0546 159.7 21.5  21d 146
2020 03 02 00  10 31 54.556   -12 21 26.24  .06746 1.0546 159.8 21.5  21d 146
2020 03 02 01  10 32 08.542   -12 18 53.36  .06753 1.0547 159.9 21.5  21d 146
2020 03 02 02  10 32 22.497   -12 16 20.64  .06759 1.0548 159.9 21.5  21d 146
2020 03 02 03  10 32 36.424   -12 13 48.09  .06766 1.0549 160.0 21.5  21d 146
2020 03 02 04  10 32 50.321   -12 11 15.70  .06772 1.0550 160.0 21.5  21d 147
2020 03 02 05  10 33 04.189   -12 08 43.48  .06779 1.0551 160.1 21.5  22d 147
2020 03 02 06  10 33 18.028   -12 06 11.42  .06786 1.0552 160.2 21.5  22d 147
2020 03 02 07  10 33 31.837   -12 03 39.52  .06792 1.0553 160.2 21.5  22d 147
2020 03 02 08  10 33 45.618   -12 01 07.79  .06799 1.0554 160.3 21.5  22d 147
2020 03 02 09  10 33 59.369   -11 58 36.23  .06805 1.0555 160.3 21.5  22d 147
2020 03 02 10  10 34 13.091   -11 56 04.84  .06812 1.0556 160.4 21.5  22d 147
2020 03 02 11  10 34 26.785   -11 53 33.62  .06819 1.0557 160.5 21.5  22d 147